Terminal Aerodrome Forecast
Issued by NWS Wichita, KS

Home | Current Version | Previous Version | Text Only | Print | Product List | Glossary Off
Versions: 1 2 3 4 5 6 7 8 9 10 11 12 13 14 15 16 17 18 19 20

000
FTUS43 KICT 241300 AAB
TAFICT
TAF AMD
KICT 241323Z 2413/2512 34015KT P6SM VCTS BKN008 OVC015CB
     FM241530 34022G30KT P6SM VCSH BKN025 OVC080
     FM242000 33017G26KT P6SM SCT100=

USA.gov is the U.S. government's official web portal to all federal, state and local government web resources and services.